Please be sure to check the latest weather conditions by clicking the link and viewing our local weather information!

Check Weather

Welcome to Lakeway Airpark (3R9)

FromTheAir

We’re a community airpark nestled within the town of Lakeway, Texas (17 miles northwest of downtown Austin).

Lakeway Airpark, Inc. was formed by Lakeway residents and interested parties to own and manage Lakeway Airpark (3R9).

The Airpark is a privately owned not for profit public use airport for residents and guests of Lakeway. No public funds are used and the airport is supported by fees and fuel sales at the airport.

Lakeway Airpark is an unmanned facility open for use from Sunrise to Sunset seven days a week. Takeoffs and landings are not permitted at night, between Sunset and Sunrise, by City Ordinance.

Quick Weather Info

Available data for KAUS from the past 2 hours
AUSTIN, TX
Metar
KAUS 252153Z 06009KT 10SM FEW070 FEW200 17/M02 A3010 RMK AO2 SLP190 T01671022

21:53 UTC

Wind: 60° 9kt

Visibility: 10 SM

Sky: FEW 7000 ft

Temp: 17 deg C / 62.6 deg F

Dewpoint: -2 deg C / 28.4 deg F

Pressure: 30.1 inHg

TAF
KAUS 252057Z 2521/2624 04010KT P6SM SKC FM252300 05008KT P6SM FEW250 FM260700 VRB03KT P6SM FEW250 FM261300 13004KT P6SM OVC025 FM261500 12005KT P6SM VCSH OVC015